SCP
0 0 0 0 0 0 0 0 0 0 0 0 0 0 0 0 0 0 0 0 0 0 0 0 0 0 0 0 0 0 0 0 0 0 0 0 0 0 0 0 0 0 0 -0 -0 -0 0 -0 -0 -0 -0 -0 -0 -0
0 0 0 0 0 0 0 0 0 0 0 0 0 0 0 -0 0 0 0 0 0 0 0 0 0 0 0 0 0 0 0 0 0 0 0 0 0 0 0 0 0 0 -0 0 -0 0 0 0 -0 0 -0 0 -0 -0
0 0 0 0 0 0 0 0 0 0 0 0 0 0 0 0 0 0 0 0 0 0 0 0 0 0 0 0 0 0 0 0 0 0 0 0 0 0 0 0 0 0 0 0 0 0 0 0 0 -0 0 0 -0 -0
0 0 0 0 0 0 0 0 0 0 0 0 0 0 0 0 0 0 0 0 0 0 0 0 0 0 0 0 0 0 0 0 0 0 0 0 0 0 0 0 0 0 0 0 0 -0 0 -0 -0 -0 -0 -0 -0 -0
0 0 0 0 0 0 0 0 0 0 0 0 0 0 0 0 0 0 0 0 0 0 0 0 0 0 0 0 0 0 0 0 0 0 0 0 0 0 0 0 0 0 0 0 0 -0 0 -0 -0 0 0 -0 -0 0
0 0 0 0 0 0 0 0 0 0 0 0 0 -0 0 0 0 0 0 0 0 0 0 0 0 0 0 0 0 0 0 0 0 0 0 0 0 0 0 0 0 0 0 0 0 0 -0 0 0 0 -0 -0 0 0
0 0 0 0 0 0 0 0 0 0 0 0 0 0 0 0 0 0 0 0 0 0 0 0 0 0 0 0 0 0 0 0 0 0 0 0 0 0 0 0 0 0 0 0 0 0 0 0 0 0 0 0 0 0
-0 0 0 0 0 0 0 0 0 0 0 0 0 -0 0 0 0 0 0 0 0 0 0 0 0 0 0 0 0 0 0 0 0 0 0 0 0 0 0 0 0 -0 0 0 0 -0 -0 0 0 0 0 0 0 0
0 0 0 0 0 0 0 0 0 0 0 0 0 0 0 0 0 0 0 0 0 0 0 0 0 0 0 0 0 0 0 0 0 0 0 0 0 -0 -0 0 0 0 0 0 0 -0 -0 0 0 0 0 0 0 0
0 0 0 0 0 0 0 0 0 0 0 0 0 0 0 0 0 0 0 0 0 0 0 0 0 0 0 0 0 0 0 -0 -0 -0 0 0 -0 -0 -0 0 0 0 0 0 0 -0 -0 0 0 0 0 0 0 0
0 0 0 0 0 0 0 0 0 0 0 0 0 0 0 0 0 0 0 0 0 0 0 0 0 0 0 0 0 0 -0 -0 -0 -0 -0 0 0 -0 -0 -0 -0 -0 -0 -0 -0 0 0 0 0 0 0 0 0 0
0 0 -0 0 0 0 0 0 0 0 0 0 0 0 0 0 0 0 0 0 0 0 0 0 0 0 0 0 0 0 -0 -0 -0 -0 -0 -0 0 0 -0 -0 -0 -0 -0 -0 -0 -0 0 0 0 0 0 0 0 0
0 0 0 0 0 0 0 0 0 0 0 0 0 0 0 0 0 0 0 0 0 0 0 0 0 0 0 0 0 0 -0 -0 -0 -0 -0 -0 -0 -0 -0 0 -0 -0 -0 -0 0 -0 0 0 0 -0 -0 0 -0 0
-0 0 0 0 0 -0 0 0 0 0 0 0 0 0 0 0 0 0 0 0 0 0 0 0 0 0 0 0 0 -0 0 -0 -0 0 -0 -0 0 0 0 -0 -0 -0 -0 -0 -0 -0 -0 -0 -0 0 -0 -0 -0 -0
-0 0 0 0 -0 0 0 0 0 0 0 0 0 0 0 0 0 0 0 0 0 0 0 0 0 0 0 0 0 0 0 -0 -0 0 0 -0 0 -0 0 -0 -0 -0 -0 -0 -0 -0 -0 -0 -0 -0 -0 -0 -0 -0
-0 0 0 0 -0 0 0 0 0 0 0 0 0 0 0 0 0 0 0 0 0 0 0 0 0 0 0 0 0 0 0 0 0 0 -0 -0 0 -0 0 0 -0 -0 -0 -0 -0 -0 -0 -0 -0 -0 0 0 0 0
-0 0 0 -0 0 0 0 0 0 0 0 0 0 0 0 0 0 0 0 0 0 0 0 0 0 0 0 0 0 0 0 0 0 0 0 -0 0 0 0 0 0 0 0 0 0 0 0 0 0 0 0 0 0 0
0 0 0 -0 0 0 0 0 0 0 0 0 0 0 0 0 0 0 0 0 0 0 0 0 0 0 0 0 0 0 0 0 0 0 0 0 0 0 0 0 0 0 0 0 0 0 0 0 0 0 0 0 0 0
0 0 -0 -0 0 0 0 0 0 0 0 0 0 0 0 0 0 0 0 0 0 0 0 0 0 0 0 0 0 0 0 0 0 0 0 0 0 0 0 0 0 0 0 0 0 0 0 0 0 0 0 0 0 0
-0 0 -0 0 0 0 0 0 0 0 0 0 0 0 0 0 0 0 0 0 0 0 0 0 0 0 0 0 0 0 0 0 0 0 0 0 0 0 0 0 0 0 0 0 0 0 0 0 0 0 0 0 0 0
0 0 0 0 0 0 0 0 0 0 0 0 0 0 0 0 0 0 0 0 0 0 0 0 0 0 0 0 0 0 0 0 0 0 0 0 0 0 0 0 0 0 0 0 0 0 0 0 0 0 0 0 0 0
0 0 0 0 0 0 0 0 0 0 0 0 0 0 0 0 0 0 0 0 0 0 0 0 0 0 0 0 -0 0 0 0 0 0 0 0 0 0 0 0 0 0 0 0 0 0 0 0 0 0 0 0 0 0
0 0 0 0 0 0 0 0 0 0 0 0 0 0 0 0 0 0 0 0 0 0 0 0 0 0 0 0 0 -0 -0 -0 0 0 0 0 0 0 0 0 0 0 0 0 0 0 0 0 0 0 0 0 0 0
0 0 0 0 0 0 0 0 0 0 0 0 0 0 0 0 0 0 0 0 0 0 0 0 0 0 0 0 0 0 0 0 0 0 0 0 0 0 0 0 0 0 0 0 0 0 0 0 0 0 0 0 0 0
0 0 0 0 0 0 0 0 0 0 0 0 0 0 0 0 0 0 0 0 0 0 0 0 0 0 0 0 0 0 0 0 0 0 0 0 0 0 0 0 0 0 0 0 0 0 0 0 0 0 0 0 0 0
0 0 0 0 0 0 0 0 0 0 0 0 0 0 0 0 0 0 0 0 0 0 0 0 0 0 0 0 0 0 0 0 0 0 0 0 0 0 0 0 0 0 0 0 0 0 0 0 0 0 0 0 0 0
0 0 0 0 0 0 0 0 0 0 0 0 0 0 0 0 0 0 0 0 0 0 0 0 0 0 0 0 0 0 0 0 0 0 0 0 0 0 0 0 0 0 0 0 0 0 0 0 0 0 0 0 0 0
0 0 0 0 0 0 0 0 0 0 0 0 0 0 0 0 0 0 0 0 0 0 0 0 0 0 0 0 0 0 0 0 0 0 0 0 0 0 0 0 0 0 0 0 0 0 0 0 0 0 0 0 0 0
0 0 0 0 0 0 0 0 0 0 0 0 0 0 0 0 0 0 0 0 0 0 0 0 0 0 0 0 0 0 0 0 0 0 0 0 0 0 0 0 0 0 0 0 0 0 0 0 0 0 0 0 0 0
0 0 0 0 0 0 0 0 0 0 0 0 0 0 0 0 0 0 0 0 0 0 0 0 0 0 0 0 0 0 0 0 0 0 0 0 0 0 0 0 0 0 0 0 0 0 0 0 0 0 0 0 0 0
0 0 0 0 0 0 0 0 0 0 0 0 0 0 0 0 0 0 0 0 0 0 0 0 0 0 0 0 0 0 0 0 0 0 0 0 0 0 0 0 0 0 0 0 0 0 0 0 0 0 0 0 0 0
0 0 0 0 0 0 0 0 0 0 0 0 0 0 0 0 0 0 0 0 0 0 0 0 0 0 0 0 0 0 0 0 0 0 0 0 0 0 0 0 0 0 0 0 0 0 0 0 0 0 0 0 0 0
0 0 0 0 0 0 0 0 0 0 0 0 0 0 0 0 0 0 0 0 0 0 0 0 0 0 0 0 0 0 0 0 0 0 0 0 0 0 0 0 0 0 0 0 0 0 0 0 0 0 0 0 0 0
Wind_Speed_500mb
67 60 55 52 50 48 57 62 55 58 60 60 54 59 74 98 97 92 56 53 32 11 27 27 21 19 21 16 8 16 7 0 6 5 6 6 4 7 3 7 6 7 6 5 4 8 6 4 3 3 11 8 8 11
73 68 62 55 52 47 47 64 61 52 58 63 56 61 88 90 100 93 59 57 41 12 16 24 22 22 22 20 14 20 3 10 10 7 1 6 1 4 6 5 6 5 10 6 12 9 4 4 10 16 17 20 11 11
65 64 66 60 58 52 46 64 66 55 59 64 58 68 93 107 98 97 80 60 41 17 13 21 18 20 20 19 18 10 10 12 11 9 11 5 4 7 4 9 4 7 9 4 8 6 9 11 14 17 18 18 21 18
55 59 63 63 57 53 48 58 75 53 59 70 61 74 97 113 105 94 77 60 44 18 11 10 20 19 20 21 18 14 8 16 16 12 6 5 5 11 5 4 6 6 15 8 9 11 6 20 23 26 26 24 22 21
60 71 66 53 57 52 49 47 72 59 54 74 69 79 108 114 100 81 66 56 48 15 13 12 20 14 16 17 17 16 17 17 12 9 5 5 4 4 3 4 6 23 14 10 11 25 11 26 37 35 31 28 23 18
43 44 51 54 56 57 48 50 46 79 55 67 87 91 113 116 101 87 21 51 57 19 7 5 10 12 15 17 17 16 14 10 7 8 7 6 5 4 4 6 19 41 34 23 4 28 18 31 36 35 31 28 23 18
40 42 42 49 51 54 49 56 46 71 54 75 96 119 123 112 98 64 26 29 78 24 7 11 5 10 14 15 15 12 11 5 5 5 8 6 6 8 4 7 19 33 40 36 16 36 22 45 35 41 34 28 24 22
44 41 40 51 48 50 51 49 54 51 47 87 116 113 119 107 91 44 22 38 75 26 7 7 2 6 20 9 5 11 7 9 4 4 5 5 7 4 9 35 24 21 46 42 34 41 20 41 31 46 41 34 28 22
41 39 42 46 47 49 49 43 55 57 33 113 130 124 108 78 50 39 27 60 69 16 14 11 12 8 22 10 8 11 8 2 5 5 4 4 3 11 25 36 47 52 50 56 48 48 27 35 40 40 40 36 30 27
38 37 41 42 47 55 47 46 51 30 107 144 137 71 14 39 68 57 22 18 22 11 11 9 17 5 18 14 6 9 4 4 3 6 3 4 9 67 56 39 23 51 55 51 59 54 49 47 52 46 39 29 23 21
36 37 37 46 50 55 47 46 50 107 155 108 32 14 83 86 42 11 16 13 15 5 20 19 17 14 22 9 8 12 5 1 2 7 7 6 8 14 26 71 45 48 63 60 64 58 57 47 48 47 44 38 34 28
35 33 42 43 55 45 51 66 91 140 77 68 56 94 58 18 10 11 7 4 7 14 21 24 21 17 20 13 10 8 7 6 8 6 6 8 11 29 13 43 72 52 62 63 57 50 49 45 41 40 40 38 34 29
31 29 27 37 30 41 62 48 105 98 87 109 38 14 21 10 6 21 19 8 6 23 27 28 10 18 16 10 15 7 8 9 6 5 9 12 21 13 28 31 72 54 55 63 54 51 44 47 43 44 41 37 34 32
32 26 26 24 20 40 53 100 113 112 80 17 15 16 11 12 13 10 9 12 18 28 65 58 26 12 11 7 8 10 5 5 5 2 14 8 30 30 29 38 72 69 60 61 56 50 45 46 46 46 42 37 34 33
31 29 31 26 30 25 59 117 120 89 23 13 16 14 12 13 10 26 44 39 32 73 85 34 21 10 4 9 4 9 7 9 13 11 8 12 8 17 42 48 73 66 62 61 59 55 48 44 48 48 47 41 36 35
35 27 30 32 33 24 73 104 79 42 10 13 11 11 15 13 4 24 40 36 59 80 61 13 9 7 4 11 8 18 16 14 9 9 21 17 14 17 41 47 70 65 58 57 56 51 49 47 47 46 46 46 43 38
33 35 26 27 31 26 109 57 28 12 11 8 3 13 20 21 34 37 40 47 80 78 11 13 11 15 9 6 5 11 12 8 11 14 19 17 14 16 38 45 65 62 59 59 53 50 46 45 45 45 47 49 46 40
36 34 19 33 35 43 54 19 10 10 12 9 6 20 12 21 43 38 38 84 63 38 25 11 23 7 11 14 8 9 41 28 23 18 16 15 14 18 37 44 61 59 59 59 54 52 50 48 45 43 45 45 45 41
36 28 24 38 40 21 16 9 6 12 10 10 22 20 17 20 24 38 56 73 40 31 32 20 9 8 8 16 15 7 10 15 15 19 22 16 14 18 35 41 55 58 58 58 56 50 46 41 38 42 44 45 42 38
33 25 29 34 28 8 11 11 13 18 8 9 15 16 19 18 32 41 70 39 37 19 5 5 9 7 8 8 6 4 7 11 16 16 20 19 18 24 38 44 57 59 59 56 51 49 50 48 48 48 46 43 40 35
32 29 37 26 11 11 15 11 14 14 20 15 25 13 18 29 21 20 31 29 18 8 4 11 11 14 8 2 1 4 7 11 6 12 7 10 20 28 37 40 50 62 64 64 60 57 56 51 48 51 48 39 36 34
34 33 24 31 8 12 16 14 24 22 12 20 14 13 16 9 11 17 25 8 10 17 10 9 11 10 7 2 5 7 8 10 9 12 10 13 18 31 40 42 48 57 60 58 55 54 54 48 43 44 42 36 36 32
32 32 11 10 12 12 12 7 10 8 8 6 10 9 6 6 12 32 12 13 11 26 30 19 14 12 9 4 5 6 6 4 8 9 8 12 14 22 30 36 36 38 42 44 44 46 49 48 45 43 41 37 37 33
37 17 12 7 13 8 13 7 10 13 13 7 7 7 1 9 27 5 5 9 17 27 43 41 32 26 19 18 9 5 4 5 8 8 6 3 13 21 27 30 30 29 29 30 35 42 46 47 46 45 41 38 35 29
14 5 9 11 11 12 9 5 5 8 7 5 9 3 5 14 5 5 7 10 29 38 42 45 44 36 27 24 20 16 13 14 15 10 6 7 19 26 30 32 28 26 26 30 35 38 40 45 46 42 38 36 31 25
6 1 3 8 6 10 10 10 10 12 10 7 4 11 12 6 7 11 7 14 22 36 37 38 42 41 36 33 28 24 22 21 18 16 11 9 15 20 24 29 28 29 28 28 29 32 35 37 38 37 36 32 26 21
9 3 9 12 13 24 13 13 13 9 10 11 9 8 7 9 12 2 5 13 19 25 30 33 34 35 33 29 27 27 28 25 21 19 14 16 20 27 29 24 21 20 25 23 24 25 23 25 29 29 26 23 21 21
9 5 13 8 15 11 13 8 7 6 7 15 20 10 18 13 6 7 9 10 17 19 22 23 24 27 26 24 23 20 24 25 23 19 17 18 22 25 30 31 33 27 23 24 22 23 24 23 20 18 17 20 24 31
10 13 11 11 12 20 13 6 5 5 10 20 7 6 6 7 6 7 8 10 12 14 15 17 18 19 21 18 15 15 18 20 20 21 20 19 21 22 25 28 31 36 26 27 28 27 24 21 16 15 21 28 30 28
8 10 14 10 10 5 6 5 6 16 16 18 16 15 12 10 10 13 14 16 17 19 19 19 18 18 16 16 13 12 12 15 16 15 15 15 18 21 23 29 33 40 35 33 30 24 17 12 16 23 25 24 19 14
9 9 16 16 8 9 24 33 30 26 15 16 17 13 16 13 14 13 15 18 18 19 20 20 19 18 19 21 21 20 20 18 16 16 17 17 16 24 30 35 37 40 36 32 22 15 20 22 21 19 16 12 8 5
12 11 9 10 6 17 15 7 7 8 8 7 8 10 10 7 6 8 14 18 20 20 22 23 23 21 22 21 21 19 17 18 18 19 20 23 26 31 35 37 38 37 30 20 16 19 19 16 13 9 8 11 13 14
12 17 18 19 11 8 12 9 7 8 11 7 8 6 5 5 5 7 18 19 19 19 20 21 22 21 22 22 22 20 20 19 19 20 23 27 30 32 33 33 32 23 18 15 14 12 10 11 14 17 19 19 19 19
Wind_Direction_500mb
251 252 254 255 257 257 239 226 230 235 228 219 219 220 226 213 209 201 195 189 190 156 163 177 176 165 165 178 145 158 100 250 57 67 121 228 133 229 55 235 192 186 128 238 73 56 308 344 104 172 150 114 110 86
248 246 245 248 252 256 253 220 222 232 233 219 218 225 220 216 207 201 189 191 197 180 164 183 183 182 186 176 165 166 198 143 162 89 20 96 285 36 166 282 336 315 186 197 171 215 227 69 117 133 140 146 148 113
235 241 240 241 246 249 251 222 219 223 223 216 215 209 215 209 204 202 192 179 186 165 141 167 178 184 187 186 188 159 185 172 176 151 152 175 191 124 178 246 239 258 178 199 46 275 222 181 160 159 160 159 152 145
235 238 236 236 242 245 249 228 216 216 215 219 216 219 213 208 205 202 191 181 182 173 131 179 193 187 191 194 199 201 176 165 149 151 127 135 159 193 228 214 200 195 141 189 269 269 217 220 198 179 172 171 167 160
233 238 238 224 237 242 246 223 219 218 219 212 222 218 207 205 199 199 179 186 187 182 149 139 180 190 189 184 185 181 165 166 156 140 115 226 201 122 14 46 255 189 186 165 221 198 180 194 187 184 182 178 176 176
233 238 235 228 238 241 243 212 227 218 208 208 216 209 201 194 191 183 160 203 192 192 156 117 154 175 177 177 172 169 176 177 162 166 174 191 222 195 133 218 255 207 205 200 232 183 185 171 180 184 184 187 189 187
228 233 235 232 236 234 233 214 231 223 219 205 210 194 189 191 191 169 176 187 187 163 191 102 102 170 166 172 175 172 184 205 184 183 184 171 184 205 138 226 249 216 209 209 207 171 166 175 184 189 191 193 195 199
230 234 236 230 234 228 218 215 225 206 197 197 194 193 191 183 178 161 149 165 176 171 184 116 72 159 175 162 163 166 173 197 210 197 185 181 170 195 256 237 229 204 194 201 200 193 197 183 185 190 194 197 202 210
228 238 244 231 228 228 212 220 219 204 183 182 172 160 153 162 156 139 138 165 166 179 180 145 151 189 159 148 165 172 177 46 214 210 187 172 286 229 227 220 207 199 189 195 196 198 200 198 196 198 199 201 206 208
224 237 242 232 222 215 208 211 208 189 163 159 157 142 119 151 133 125 104 138 177 240 206 106 128 139 155 162 163 143 156 168 205 252 167 135 255 249 243 228 220 203 195 192 187 198 202 202 202 202 205 208 212 211
223 236 240 234 220 218 198 202 197 159 163 150 148 100 132 128 124 110 132 146 201 253 191 149 161 140 177 137 173 194 179 154 81 257 135 287 273 243 233 216 205 198 201 201 206 210 205 208 202 201 201 202 206 212
222 243 233 218 210 212 185 181 157 164 162 166 140 128 121 119 142 128 172 156 171 207 157 147 144 130 148 154 120 153 134 47 230 128 73 270 252 242 212 195 197 198 198 203 208 212 210 207 204 206 202 203 204 206
215 232 236 195 177 190 203 203 168 166 155 126 120 113 140 157 129 170 186 231 157 162 160 154 129 137 132 151 92 99 98 209 132 66 231 233 254 236 198 192 189 196 199 201 205 206 202 205 202 201 202 200 205 206
207 216 201 176 204 226 207 164 164 154 130 113 137 144 184 183 217 184 162 157 154 163 156 146 119 134 128 92 139 107 241 73 49 297 236 248 253 235 211 193 190 192 194 198 200 200 199 202 202 199 201 208 209 203
201 202 207 203 228 229 166 165 167 158 144 120 147 178 189 166 127 161 144 134 147 154 148 126 91 116 66 100 58 107 47 250 211 231 230 270 264 223 201 195 191 193 192 193 196 199 201 200 197 198 198 200 203 203
200 204 217 209 235 192 170 154 158 167 103 130 141 110 124 94 43 151 153 139 153 150 145 133 114 95 201 132 111 210 139 219 245 222 251 271 279 233 203 199 193 194 195 192 194 197 199 200 200 201 205 203 199 202
193 206 212 196 222 170 156 160 147 128 118 91 83 154 162 154 172 166 166 159 157 152 156 131 120 190 108 80 247 190 204 224 241 256 263 276 265 235 198 199 193 193 192 191 193 195 196 195 195 200 203 201 199 201
198 204 188 190 200 163 178 188 124 103 85 103 145 146 139 144 160 153 156 159 157 182 151 170 132 136 181 174 245 226 231 245 259 270 283 262 240 219 193 196 193 194 193 193 194 195 194 196 198 198 198 200 199 199
201 195 185 203 177 156 152 133 101 93 84 92 103 113 110 107 139 161 161 157 164 169 141 144 105 178 213 214 218 219 257 258 271 267 260 254 236 207 190 188 195 194 193 193 193 196 198 199 201 198 195 195 198 204
196 185 188 189 181 157 96 75 86 90 102 120 115 105 97 96 135 149 160 157 154 152 153 133 207 229 196 176 201 283 300 283 286 258 244 236 222 203 195 195 194 193 192 192 194 196 197 196 195 196 196 198 203 204
173 196 181 182 187 99 94 106 81 92 115 105 117 81 81 116 116 151 161 159 174 215 223 208 207 195 200 236 241 311 310 306 259 220 294 275 227 202 196 193 197 200 199 197 199 199 201 204 203 198 196 199 198 199
189 193 181 191 118 88 82 69 109 113 90 122 111 101 109 108 123 141 160 203 242 214 196 178 174 188 210 258 327 337 325 304 237 213 255 293 241 213 201 196 192 197 205 211 216 215 206 200 201 202 202 203 204 208
183 186 182 154 95 69 120 86 95 98 113 144 102 78 51 99 132 138 187 224 243 210 204 193 183 180 165 205 283 326 317 284 201 220 272 295 230 210 207 200 198 203 206 209 211 212 209 207 207 205 206 207 208 215
181 192 191 110 88 104 130 72 95 100 106 69 74 86 145 132 155 164 229 237 216 197 200 204 209 215 213 243 260 288 279 246 229 215 277 265 188 185 188 198 203 206 208 217 215 209 209 210 209 206 207 209 212 223
183 148 108 71 113 107 97 60 58 68 102 154 107 131 219 153 126 174 219 234 201 198 202 204 207 209 216 222 227 222 225 228 216 230 267 224 189 186 190 190 194 200 202 201 199 198 196 193 198 206 209 210 217 231
115 292 149 142 132 113 175 119 157 149 131 98 118 133 154 133 168 226 209 184 190 200 204 204 207 211 215 220 223 220 211 207 216 224 234 225 201 206 207 197 190 188 185 179 187 189 191 196 200 204 207 214 226 244
131 98 77 82 107 119 89 80 114 100 109 140 173 147 142 177 227 211 195 198 200 200 203 207 210 214 218 221 225 220 215 209 214 219 221 220 209 201 192 198 199 191 187 183 181 187 199 202 203 207 213 224 240 257
97 116 125 113 77 54 120 85 96 127 154 154 139 173 182 188 185 174 190 194 196 196 199 206 212 212 213 218 224 224 219 211 210 217 221 217 211 201 194 191 186 182 182 182 180 183 185 187 195 206 223 240 253 263
59 97 111 46 69 52 45 78 142 124 147 181 148 129 117 99 134 143 149 153 168 174 177 188 196 204 208 212 217 221 218 206 203 211 213 209 198 192 187 186 184 183 174 179 178 174 171 173 182 215 244 254 260 266
46 46 96 62 67 62 360 56 124 122 115 106 94 105 96 98 95 114 124 141 154 165 168 172 174 177 179 182 189 188 189 196 197 200 207 200 187 177 175 174 173 174 173 171 171 156 152 195 239 255 256 257 257 252
74 81 79 64 83 59 106 97 97 98 91 71 76 103 111 117 104 108 129 142 150 155 158 162 165 171 174 174 173 172 174 182 183 183 185 183 177 171 172 170 168 166 164 156 159 203 241 247 250 252 248 239 228 203
49 59 114 99 110 140 107 79 85 77 68 71 65 78 95 98 101 133 148 152 156 162 163 165 164 169 169 169 167 168 170 173 182 167 174 183 179 173 169 167 163 160 162 175 205 228 238 242 239 214 166 137 126 125
90 76 89 104 115 183 158 131 76 88 60 66 63 77 87 96 139 141 162 165 165 163 166 169 171 172 170 171 172 169 172 175 175 173 178 177 176 174 170 168 166 174 183 195 208 210 196 171 149 136 128 126 128 129
Wind_Speed_850mb
67 60 55 52 50 48 57 62 55 58 60 60 54 59 74 98 97 92 56 53 32 11 27 27 21 19 21 16 8 16 7 0 6 5 6 6 4 7 3 7 6 7 6 5 4 8 6 4 3 3 11 8 8 11
73 68 62 55 52 47 47 64 61 52 58 63 56 61 88 90 100 93 59 57 41 12 16 24 22 22 22 20 14 20 3 10 10 7 1 6 1 4 6 5 6 5 10 6 12 9 4 4 10 16 17 20 11 11
65 64 66 60 58 52 46 64 66 55 59 64 58 68 93 107 98 97 80 60 41 17 13 21 18 20 20 19 18 10 10 12 11 9 11 5 4 7 4 9 4 7 9 4 8 6 9 11 14 17 18 18 21 18
55 59 63 63 57 53 48 58 75 53 59 70 61 74 97 113 105 94 77 60 44 18 11 10 20 19 20 21 18 14 8 16 16 12 6 5 5 11 5 4 6 6 15 8 9 11 6 20 23 26 26 24 22 21
60 71 66 53 57 52 49 47 72 59 54 74 69 79 108 114 100 81 66 56 48 15 13 12 20 14 16 17 17 16 17 17 12 9 5 5 4 4 3 4 6 23 14 10 11 25 11 26 37 35 31 28 23 18
43 44 51 54 56 57 48 50 46 79 55 67 87 91 113 116 101 87 21 51 57 19 7 5 10 12 15 17 17 16 14 10 7 8 7 6 5 4 4 6 19 41 34 23 4 28 18 31 36 35 31 28 23 18
40 42 42 49 51 54 49 56 46 71 54 75 96 119 123 112 98 64 26 29 78 24 7 11 5 10 14 15 15 12 11 5 5 5 8 6 6 8 4 7 19 33 40 36 16 36 22 45 35 41 34 28 24 22
44 41 40 51 48 50 51 49 54 51 47 87 116 113 119 107 91 44 22 38 75 26 7 7 2 6 20 9 5 11 7 9 4 4 5 5 7 4 9 35 24 21 46 42 34 41 20 41 31 46 41 34 28 22
41 39 42 46 47 49 49 43 55 57 33 113 130 124 108 78 50 39 27 60 69 16 14 11 12 8 22 10 8 11 8 2 5 5 4 4 3 11 25 36 47 52 50 56 48 48 27 35 40 40 40 36 30 27
38 37 41 42 47 55 47 46 51 30 107 144 137 71 14 39 68 57 22 18 22 11 11 9 17 5 18 14 6 9 4 4 3 6 3 4 9 67 56 39 23 51 55 51 59 54 49 47 52 46 39 29 23 21
36 37 37 46 50 55 47 46 50 107 155 108 32 14 83 86 42 11 16 13 15 5 20 19 17 14 22 9 8 12 5 1 2 7 7 6 8 14 26 71 45 48 63 60 64 58 57 47 48 47 44 38 34 28
35 33 42 43 55 45 51 66 91 140 77 68 56 94 58 18 10 11 7 4 7 14 21 24 21 17 20 13 10 8 7 6 8 6 6 8 11 29 13 43 72 52 62 63 57 50 49 45 41 40 40 38 34 29
31 29 27 37 30 41 62 48 105 98 87 109 38 14 21 10 6 21 19 8 6 23 27 28 10 18 16 10 15 7 8 9 6 5 9 12 21 13 28 31 72 54 55 63 54 51 44 47 43 44 41 37 34 32
32 26 26 24 20 40 53 100 113 112 80 17 15 16 11 12 13 10 9 12 18 28 65 58 26 12 11 7 8 10 5 5 5 2 14 8 30 30 29 38 72 69 60 61 56 50 45 46 46 46 42 37 34 33
31 29 31 26 30 25 59 117 120 89 23 13 16 14 12 13 10 26 44 39 32 73 85 34 21 10 4 9 4 9 7 9 13 11 8 12 8 17 42 48 73 66 62 61 59 55 48 44 48 48 47 41 36 35
35 27 30 32 33 24 73 104 79 42 10 13 11 11 15 13 4 24 40 36 59 80 61 13 9 7 4 11 8 18 16 14 9 9 21 17 14 17 41 47 70 65 58 57 56 51 49 47 47 46 46 46 43 38
33 35 26 27 31 26 109 57 28 12 11 8 3 13 20 21 34 37 40 47 80 78 11 13 11 15 9 6 5 11 12 8 11 14 19 17 14 16 38 45 65 62 59 59 53 50 46 45 45 45 47 49 46 40
36 34 19 33 35 43 54 19 10 10 12 9 6 20 12 21 43 38 38 84 63 38 25 11 23 7 11 14 8 9 41 28 23 18 16 15 14 18 37 44 61 59 59 59 54 52 50 48 45 43 45 45 45 41
36 28 24 38 40 21 16 9 6 12 10 10 22 20 17 20 24 38 56 73 40 31 32 20 9 8 8 16 15 7 10 15 15 19 22 16 14 18 35 41 55 58 58 58 56 50 46 41 38 42 44 45 42 38
33 25 29 34 28 8 11 11 13 18 8 9 15 16 19 18 32 41 70 39 37 19 5 5 9 7 8 8 6 4 7 11 16 16 20 19 18 24 38 44 57 59 59 56 51 49 50 48 48 48 46 43 40 35
32 29 37 26 11 11 15 11 14 14 20 15 25 13 18 29 21 20 31 29 18 8 4 11 11 14 8 2 1 4 7 11 6 12 7 10 20 28 37 40 50 62 64 64 60 57 56 51 48 51 48 39 36 34
34 33 24 31 8 12 16 14 24 22 12 20 14 13 16 9 11 17 25 8 10 17 10 9 11 10 7 2 5 7 8 10 9 12 10 13 18 31 40 42 48 57 60 58 55 54 54 48 43 44 42 36 36 32
32 32 11 10 12 12 12 7 10 8 8 6 10 9 6 6 12 32 12 13 11 26 30 19 14 12 9 4 5 6 6 4 8 9 8 12 14 22 30 36 36 38 42 44 44 46 49 48 45 43 41 37 37 33
37 17 12 7 13 8 13 7 10 13 13 7 7 7 1 9 27 5 5 9 17 27 43 41 32 26 19 18 9 5 4 5 8 8 6 3 13 21 27 30 30 29 29 30 35 42 46 47 46 45 41 38 35 29
14 5 9 11 11 12 9 5 5 8 7 5 9 3 5 14 5 5 7 10 29 38 42 45 44 36 27 24 20 16 13 14 15 10 6 7 19 26 30 32 28 26 26 30 35 38 40 45 46 42 38 36 31 25
6 1 3 8 6 10 10 10 10 12 10 7 4 11 12 6 7 11 7 14 22 36 37 38 42 41 36 33 28 24 22 21 18 16 11 9 15 20 24 29 28 29 28 28 29 32 35 37 38 37 36 32 26 21
9 3 9 12 13 24 13 13 13 9 10 11 9 8 7 9 12 2 5 13 19 25 30 33 34 35 33 29 27 27 28 25 21 19 14 16 20 27 29 24 21 20 25 23 24 25 23 25 29 29 26 23 21 21
9 5 13 8 15 11 13 8 7 6 7 15 20 10 18 13 6 7 9 10 17 19 22 23 24 27 26 24 23 20 24 25 23 19 17 18 22 25 30 31 33 27 23 24 22 23 24 23 20 18 17 20 24 31
10 13 11 11 12 20 13 6 5 5 10 20 7 6 6 7 6 7 8 10 12 14 15 17 18 19 21 18 15 15 18 20 20 21 20 19 21 22 25 28 31 36 26 27 28 27 24 21 16 15 21 28 30 28
8 10 14 10 10 5 6 5 6 16 16 18 16 15 12 10 10 13 14 16 17 19 19 19 18 18 16 16 13 12 12 15 16 15 15 15 18 21 23 29 33 40 35 33 30 24 17 12 16 23 25 24 19 14
9 9 16 16 8 9 24 33 30 26 15 16 17 13 16 13 14 13 15 18 18 19 20 20 19 18 19 21 21 20 20 18 16 16 17 17 16 24 30 35 37 40 36 32 22 15 20 22 21 19 16 12 8 5
12 11 9 10 6 17 15 7 7 8 8 7 8 10 10 7 6 8 14 18 20 20 22 23 23 21 22 21 21 19 17 18 18 19 20 23 26 31 35 37 38 37 30 20 16 19 19 16 13 9 8 11 13 14
12 17 18 19 11 8 12 9 7 8 11 7 8 6 5 5 5 7 18 19 19 19 20 21 22 21 22 22 22 20 20 19 19 20 23 27 30 32 33 33 32 23 18 15 14 12 10 11 14 17 19 19 19 19
Wind_Direction_850mb
251 252 254 255 257 257 239 226 230 235 228 219 219 220 226 213 209 201 195 189 190 156 163 177 176 165 165 178 145 158 100 250 57 67 121 228 133 229 55 235 192 186 128 238 73 56 308 344 104 172 150 114 110 86
248 246 245 248 252 256 253 220 222 232 233 219 218 225 220 216 207 201 189 191 197 180 164 183 183 182 186 176 165 166 198 143 162 89 20 96 285 36 166 282 336 315 186 197 171 215 227 69 117 133 140 146 148 113
235 241 240 241 246 249 251 222 219 223 223 216 215 209 215 209 204 202 192 179 186 165 141 167 178 184 187 186 188 159 185 172 176 151 152 175 191 124 178 246 239 258 178 199 46 275 222 181 160 159 160 159 152 145
235 238 236 236 242 245 249 228 216 216 215 219 216 219 213 208 205 202 191 181 182 173 131 179 193 187 191 194 199 201 176 165 149 151 127 135 159 193 228 214 200 195 141 189 269 269 217 220 198 179 172 171 167 160
233 238 238 224 237 242 246 223 219 218 219 212 222 218 207 205 199 199 179 186 187 182 149 139 180 190 189 184 185 181 165 166 156 140 115 226 201 122 14 46 255 189 186 165 221 198 180 194 187 184 182 178 176 176
233 238 235 228 238 241 243 212 227 218 208 208 216 209 201 194 191 183 160 203 192 192 156 117 154 175 177 177 172 169 176 177 162 166 174 191 222 195 133 218 255 207 205 200 232 183 185 171 180 184 184 187 189 187
228 233 235 232 236 234 233 214 231 223 219 205 210 194 189 191 191 169 176 187 187 163 191 102 102 170 166 172 175 172 184 205 184 183 184 171 184 205 138 226 249 216 209 209 207 171 166 175 184 189 191 193 195 199
230 234 236 230 234 228 218 215 225 206 197 197 194 193 191 183 178 161 149 165 176 171 184 116 72 159 175 162 163 166 173 197 210 197 185 181 170 195 256 237 229 204 194 201 200 193 197 183 185 190 194 197 202 210
228 238 244 231 228 228 212 220 219 204 183 182 172 160 153 162 156 139 138 165 166 179 180 145 151 189 159 148 165 172 177 46 214 210 187 172 286 229 227 220 207 199 189 195 196 198 200 198 196 198 199 201 206 208
224 237 242 232 222 215 208 211 208 189 163 159 157 142 119 151 133 125 104 138 177 240 206 106 128 139 155 162 163 143 156 168 205 252 167 135 255 249 243 228 220 203 195 192 187 198 202 202 202 202 205 208 212 211
223 236 240 234 220 218 198 202 197 159 163 150 148 100 132 128 124 110 132 146 201 253 191 149 161 140 177 137 173 194 179 154 81 257 135 287 273 243 233 216 205 198 201 201 206 210 205 208 202 201 201 202 206 212
222 243 233 218 210 212 185 181 157 164 162 166 140 128 121 119 142 128 172 156 171 207 157 147 144 130 148 154 120 153 134 47 230 128 73 270 252 242 212 195 197 198 198 203 208 212 210 207 204 206 202 203 204 206
215 232 236 195 177 190 203 203 168 166 155 126 120 113 140 157 129 170 186 231 157 162 160 154 129 137 132 151 92 99 98 209 132 66 231 233 254 236 198 192 189 196 199 201 205 206 202 205 202 201 202 200 205 206
207 216 201 176 204 226 207 164 164 154 130 113 137 144 184 183 217 184 162 157 154 163 156 146 119 134 128 92 139 107 241 73 49 297 236 248 253 235 211 193 190 192 194 198 200 200 199 202 202 199 201 208 209 203
201 202 207 203 228 229 166 165 167 158 144 120 147 178 189 166 127 161 144 134 147 154 148 126 91 116 66 100 58 107 47 250 211 231 230 270 264 223 201 195 191 193 192 193 196 199 201 200 197 198 198 200 203 203
200 204 217 209 235 192 170 154 158 167 103 130 141 110 124 94 43 151 153 139 153 150 145 133 114 95 201 132 111 210 139 219 245 222 251 271 279 233 203 199 193 194 195 192 194 197 199 200 200 201 205 203 199 202
193 206 212 196 222 170 156 160 147 128 118 91 83 154 162 154 172 166 166 159 157 152 156 131 120 190 108 80 247 190 204 224 241 256 263 276 265 235 198 199 193 193 192 191 193 195 196 195 195 200 203 201 199 201
198 204 188 190 200 163 178 188 124 103 85 103 145 146 139 144 160 153 156 159 157 182 151 170 132 136 181 174 245 226 231 245 259 270 283 262 240 219 193 196 193 194 193 193 194 195 194 196 198 198 198 200 199 199
201 195 185 203 177 156 152 133 101 93 84 92 103 113 110 107 139 161 161 157 164 169 141 144 105 178 213 214 218 219 257 258 271 267 260 254 236 207 190 188 195 194 193 193 193 196 198 199 201 198 195 195 198 204
196 185 188 189 181 157 96 75 86 90 102 120 115 105 97 96 135 149 160 157 154 152 153 133 207 229 196 176 201 283 300 283 286 258 244 236 222 203 195 195 194 193 192 192 194 196 197 196 195 196 196 198 203 204
173 196 181 182 187 99 94 106 81 92 115 105 117 81 81 116 116 151 161 159 174 215 223 208 207 195 200 236 241 311 310 306 259 220 294 275 227 202 196 193 197 200 199 197 199 199 201 204 203 198 196 199 198 199
189 193 181 191 118 88 82 69 109 113 90 122 111 101 109 108 123 141 160 203 242 214 196 178 174 188 210 258 327 337 325 304 237 213 255 293 241 213 201 196 192 197 205 211 216 215 206 200 201 202 202 203 204 208
183 186 182 154 95 69 120 86 95 98 113 144 102 78 51 99 132 138 187 224 243 210 204 193 183 180 165 205 283 326 317 284 201 220 272 295 230 210 207 200 198 203 206 209 211 212 209 207 207 205 206 207 208 215
181 192 191 110 88 104 130 72 95 100 106 69 74 86 145 132 155 164 229 237 216 197 200 204 209 215 213 243 260 288 279 246 229 215 277 265 188 185 188 198 203 206 208 217 215 209 209 210 209 206 207 209 212 223
183 148 108 71 113 107 97 60 58 68 102 154 107 131 219 153 126 174 219 234 201 198 202 204 207 209 216 222 227 222 225 228 216 230 267 224 189 186 190 190 194 200 202 201 199 198 196 193 198 206 209 210 217 231
115 292 149 142 132 113 175 119 157 149 131 98 118 133 154 133 168 226 209 184 190 200 204 204 207 211 215 220 223 220 211 207 216 224 234 225 201 206 207 197 190 188 185 179 187 189 191 196 200 204 207 214 226 244
131 98 77 82 107 119 89 80 114 100 109 140 173 147 142 177 227 211 195 198 200 200 203 207 210 214 218 221 225 220 215 209 214 219 221 220 209 201 192 198 199 191 187 183 181 187 199 202 203 207 213 224 240 257
97 116 125 113 77 54 120 85 96 127 154 154 139 173 182 188 185 174 190 194 196 196 199 206 212 212 213 218 224 224 219 211 210 217 221 217 211 201 194 191 186 182 182 182 180 183 185 187 195 206 223 240 253 263
59 97 111 46 69 52 45 78 142 124 147 181 148 129 117 99 134 143 149 153 168 174 177 188 196 204 208 212 217 221 218 206 203 211 213 209 198 192 187 186 184 183 174 179 178 174 171 173 182 215 244 254 260 266
46 46 96 62 67 62 360 56 124 122 115 106 94 105 96 98 95 114 124 141 154 165 168 172 174 177 179 182 189 188 189 196 197 200 207 200 187 177 175 174 173 174 173 171 171 156 152 195 239 255 256 257 257 252
74 81 79 64 83 59 106 97 97 98 91 71 76 103 111 117 104 108 129 142 150 155 158 162 165 171 174 174 173 172 174 182 183 183 185 183 177 171 172 170 168 166 164 156 159 203 241 247 250 252 248 239 228 203
49 59 114 99 110 140 107 79 85 77 68 71 65 78 95 98 101 133 148 152 156 162 163 165 164 169 169 169 167 168 170 173 182 167 174 183 179 173 169 167 163 160 162 175 205 228 238 242 239 214 166 137 126 125
90 76 89 104 115 183 158 131 76 88 60 66 63 77 87 96 139 141 162 165 165 163 166 169 171 172 170 171 172 169 172 175 175 173 178 177 176 174 170 168 166 174 183 195 208 210 196 171 149 136 128 126 128 129